This is the latest recevied weather packets stored in our database for station/object K1ABC. If no packets are shown the sender has not sent any weather packets the latest 10 day(s).
| Time | Temp. | Humidity | Pressure | Rain* | Wind** | Luminosity | Snow |
|---|---|---|---|---|---|---|---|
| 1777676837 | 15° C | 32% | 1009.2 hPa | 0 mm | - | - | - |
| 1777676384 | 15° C | 32% | 1009.1 hPa | 0 mm | - | - | - |
| 1777675936 | 15.56° C | 30% | 1009.1 hPa | 0 mm | - | - | - |
| 1777673976 | 16.67° C | 29% | 1008.8 hPa | 0 mm | - | - | - |
| 1777673648 | 16.67° C | 29% | 1008.8 hPa | 0 mm | - | - | - |
| 1777673199 | 17.22° C | 28% | 1008.7 hPa | 0 mm | - | - | - |
| 1777671365 | 17.78° C | 29% | 1008.4 hPa | 0 mm | - | - | - |
| 1777671165 | 17.78° C | 29% | 1008.4 hPa | 0 mm | - | - | - |
| 1777669482 | 18.33° C | 27% | 1008.1 hPa | 0 mm | - | - | - |
| 1777667685 | 17.78° C | 29% | 1007.9 hPa | 0 mm | - | - | - |
| 1777667486 | 17.78° C | 28% | 1007.9 hPa | 0 mm | - | - | - |
| 1777667158 | 17.78° C | 31% | 1007.8 hPa | 0 mm | - | - | - |
| 1777666210 | 18.33° C | 30% | 1007.9 hPa | 0 mm | - | - | - |
| 1777666016 | 18.33° C | 29% | 1007.9 hPa | 0 mm | - | - | - |
| 1777665815 | 18.33° C | 33% | 1007.9 hPa | 0 mm | - | - | - |
| 1777664984 | 18.33° C | 29% | 1008 hPa | 0 mm | - | - | - |
| 1777663668 | 17.22° C | 32% | 1008.2 hPa | 0 mm | - | - | - |
| 1777663099 | 17.22° C | 31% | 1008.2 hPa | 0 mm | - | - | - |
| 1777662659 | 17.78° C | 32% | 1008.1 hPa | 0 mm | - | - | - |
| 1777662216 | 17.78° C | 36% | 1008 hPa | 0 mm | - | - | - |
| 1777661896 | 17.78° C | 35% | 1008.2 hPa | 0 mm | - | - | - |
| 1777660951 | 17.22° C | 36% | 1008.1 hPa | 0 mm | - | - | - |
| 1777660755 | 17.22° C | 35% | 1008.3 hPa | 0 mm | - | - | - |
| 1777660187 | 17.22° C | 36% | 1008.4 hPa | 0 mm | - | - | - |
| 1777659869 | 17.22° C | 36% | 1008.3 hPa | 0 mm | - | - | - |
* Rain latest hour (hover to see other rain measurements)
** Current wind speed in m/s (hover to see current wind gust speed)